Location: Allos
(44.2333°N, 6.6333°E)
Time: 08:03:41
(UTC+00:00)

DX 1 - Visible Passes

Search period start: 09 May 2021 00:00
Search period end: 19 May 2021 00:00
Orbit: 618 x 630 km, 98.5° (Epoch: 08 May)

Date Brightness Start Highest point End Pass type
(mag) Time Alt. Az. Time Alt. Az. Time Alt. Az.
09 May ? 20:10:49 10° NNW 20:13:48 18° WNW 20:16:47 10° WSW visible
10 May ? 20:30:23 10° NW 20:32:15 13° WNW 20:34:05 10° W visible
12 May ? 19:29:48 10° N 19:33:57 45° WNW 19:38:02 10° SW visible
13 May ? 19:48:43 10° N 19:52:29 30° WNW 19:56:13 10° SW visible
14 May ? 20:07:49 10° NNW 20:10:59 20° WNW 20:14:08 10° WSW visible
15 May ? 20:27:15 10° NNW 20:29:26 14° WNW 20:31:37 10° W visible
17 May ? 19:26:53 10° N 19:31:05 50° WNW 19:35:15 10° SW visible
18 May ? 19:45:47 10° N 19:49:38 32° WNW 19:53:29 10° SW visible
